Location: Carrer del Canonge
(41.4901°N, 2.2931°E)
Time: 14:36:11
(UTC+00:00)

Cosmos 1174 - Pass Details

Date: 18 September 2020
Orbit: 362 x 1155 km, 66.1° (Epoch: 28 October)

Event Time Altitude Azimuth Distance (km) Brightness Sun altitude
Rises 19:20:53 0° 198° (SSW) 2,823 7.5 -16.8°
Reaches altitude 10° 19:22:55 10° 194° (SSW) 2,035 6.7 -17.1°
Maximum altitude 19:27:30 60° 115° (ESE) 864 4.4 -17.9°
Drops below altitude 10° 19:33:20 10° 37° (NE) 2,582 7.1 -19.0°
Sets 19:36:11 0° 34° (NE) 3,653 7.9 -19.5°
